Flag for Israel Weather past 2 weeks in Kfar Saba, Israel

Now
81 °F

Passing clouds.


Feels Like: 85 °F
Forecast: 73 / 83 °F
Wind: 9 mph from West

Location: Dov Airport

Current Time: Jul 6, 2015 at 1:03:41 PM

Latest Report: Jul 6, 2015 at 11:50 AM


Visibility: N/A

Pressure: 29.86 "Hg

Humidity: 74%

Dew point: 72 °F

Location of Kfar SabaLocation

Historic Weather in Kfar Saba — Graph

°F

Kfar Saba temperature yesterday

Maximum temperature yesterday: 82 °F (at 2:50 PM)
Minimum temperature yesterday: 70 °F (at 5:50 AM)
Average temperature yesterday: 78 °F

Past Weeks' High & Low Weather Summary

 TemperatureHumidityPressure
High84 °F (Jun 27, 5:50 PM)89% (Jul 6, 5:50 AM)29.95 "Hg (Jul 6, 5:50 AM)
Low70 °F (Jul 5, 5:50 AM)27% (Jun 27, 8:50 PM)29.56 "Hg (Jun 27, 10:50 PM)
Average78 °F66%29.84 "Hg
* Reported Jun 21 11:50 AM — Jul 6 11:50 AM, Kfar Saba, Weather by CustomWeather, © 2015

Note: Actual official high and low records may vary slightly from our data, if they occured in-between our weather recording intervals... More about our weather records

Advertising

Kfar Saba weather history for previous 24 hours

 ConditionsComfort  
Time TempWeatherWind HumidityBarometerVisibility
11:50 AM
Mon, Jul 6
81 °FPassing clouds.9 mph74%29.86 "HgN/A
10:50 AM81 °FPassing clouds.8 mph74%29.86 "HgN/A
9:50 AM81 °FPassing clouds.8 mph70%29.86 "HgN/A
8:50 AM79 °FPassing clouds.7 mph79%29.86 "HgN/A
7:50 AM79 °FPassing clouds.3 mph74%29.86 "HgN/A
6:50 AM75 °FScattered clouds.2 mph83%29.83 "HgN/A
5:50 AM73 °FPassing clouds.3 mph89%29.83 "HgN/A
10:50 PM
Sun, Jul 5
77 °FClear.7 mph83%29.86 "Hg10 mi
9:50 PM79 °FClear.9 mph79%29.83 "Hg10 mi
8:50 PM79 °FClear.7 mph79%29.83 "Hg10 mi
7:50 PM79 °FSunny.8 mph79%29.83 "Hg10 mi
6:50 PM81 °FSunny.9 mph70%29.83 "Hg10 mi
5:50 PM82 °FSunny.10 mph66%29.83 "Hg10 mi
4:50 PM82 °FSunny.13 mph66%29.83 "Hg10 mi
3:50 PM81 °FSunny.12 mph70%29.83 "Hg10 mi
2:50 PM82 °FSunny.12 mph62%29.86 "Hg10 mi
1:50 PM81 °FSunny.8 mph70%29.86 "Hg10 mi
Weather by CustomWeather, © 2015

See weather overviewHow to use our weather pages